TimeCDT,TemperatureF,Dew PointF,Humidity,Sea Level PressureIn,VisibilityMPH,Wind Direction,Wind SpeedMPH,Gust SpeedMPH,PrecipitationIn,Events,Conditions,WindDirDegrees,DateUTC
12:15 AM,66.6,60.1,80,30.02,10.0,SE,5.8,-,N/A,,Clear,130,2013-06-15 05:15:00
12:35 AM,67.1,59.2,76,30.01,10.0,SE,6.9,-,N/A,,Clear,130,2013-06-15 05:35:00
12:55 AM,69.1,57.6,67,30.01,10.0,SE,4.6,-,N/A,,Clear,140,2013-06-15 05:55:00
1:15 AM,68.9,57.9,68,30.01,10.0,ESE,8.1,-,N/A,,Clear,120,2013-06-15 06:15:00
1:35 AM,70.2,56.7,62,30.01,10.0,SE,5.8,-,N/A,,Clear,140,2013-06-15 06:35:00
1:55 AM,70.0,56.8,63,30.02,10.0,SE,4.6,-,N/A,,Clear,130,2013-06-15 06:55:00
2:15 AM,70.0,56.5,62,30.04,10.0,Calm,Calm,-,N/A,,Clear,0,2013-06-15 07:15:00
2:35 AM,69.3,58.8,69,30.03,10.0,Calm,Calm,-,N/A,,Clear,0,2013-06-15 07:35:00
2:55 AM,68.4,58.3,70,30.03,10.0,ESE,3.5,-,N/A,,Clear,120,2013-06-15 07:55:00
3:15 AM,67.8,58.5,72,30.03,10.0,ESE,4.6,-,N/A,,Clear,110,2013-06-15 08:15:00
3:35 AM,67.1,59.0,75,30.03,10.0,ESE,3.5,-,N/A,,Clear,120,2013-06-15 08:35:00
3:55 AM,67.5,59.2,75,30.04,10.0,Calm,Calm,-,N/A,,Clear,0,2013-06-15 08:55:00
4:15 AM,66.6,59.2,77,30.03,10.0,SE,3.5,-,N/A,,Clear,130,2013-06-15 09:15:00
4:35 AM,66.6,59.2,77,30.03,10.0,Calm,Calm,-,N/A,,Clear,0,2013-06-15 09:35:00
4:55 AM,67.8,59.4,74,30.07,10.0,Calm,Calm,-,N/A,,Scattered Clouds,0,2013-06-15 09:55:00
5:15 AM,69.3,59.2,70,30.09,10.0,West,3.5,-,N/A,,Mostly Cloudy,280,2013-06-15 10:15:00
5:35 AM,68.7,59.5,72,30.09,10.0,WNW,3.5,-,N/A,,Scattered Clouds,290,2013-06-15 10:35:00
5:55 AM,68.4,59.5,73,30.09,10.0,West,3.5,-,N/A,,Scattered Clouds,280,2013-06-15 10:55:00
6:15 AM,68.4,59.4,73,30.09,10.0,Calm,Calm,-,N/A,,Scattered Clouds,0,2013-06-15 11:15:00
6:35 AM,68.5,60.3,75,30.08,10.0,Calm,Calm,-,N/A,,Mostly Cloudy,0,2013-06-15 11:35:00
6:45 AM,68.0,60.8,78,30.05,10.0,ESE,9.2,-,N/A,,Mostly Cloudy,120,2013-06-15 11:45:00
6:55 AM,67.6,61.3,80,30.04,10.0,ESE,6.9,-,N/A,,Scattered Clouds,120,2013-06-15 11:55:00
7:45 AM,69.8,59.0,68,29.96,10.0,SE,16.1,-,N/A,,Mostly Cloudy,130,2013-06-15 12:45:00
8:50 AM,75.2,57.2,53,30.00,10.0,South,23.0,-,N/A,,Mostly Cloudy,180,2013-06-15 13:50:00
9:47 AM,77.0,59.0,54,30.02,10.0,South,16.1,-,N/A,,Mostly Cloudy,190,2013-06-15 14:47:00
10:55 AM,82.4,57.2,42,30.02,10.0,South,18.4,-,N/A,,Overcast,190,2013-06-15 15:55:00
11:45 AM,80.6,57.2,45,30.02,10.0,South,11.5,-,N/A,,Overcast,180,2013-06-15 16:45:00
12:50 PM,84.2,59.0,42,30.00,10.0,South,13.8,-,N/A,,Scattered Clouds,180,2013-06-15 17:50:00
1:50 PM,84.2,59.0,42,29.99,10.0,South,12.7,-,N/A,,Scattered Clouds,190,2013-06-15 18:50:00
2:50 PM,86.0,59.0,40,30.00,10.0,SSW,6.9,-,N/A,,Mostly Cloudy,200,2013-06-15 19:50:00
3:50 PM,87.8,59.0,38,29.98,10.0,SSW,6.9,-,N/A,,Mostly Cloudy,200,2013-06-15 20:50:00
4:50 PM,86.0,60.8,43,29.96,10.0,South,6.9,-,N/A,,Mostly Cloudy,180,2013-06-15 21:50:00
5:50 PM,84.2,62.6,48,29.94,10.0,South,11.5,-,N/A,,Mostly Cloudy,180,2013-06-15 22:50:00
6:50 PM,80.6,64.4,58,29.94,10.0,South,11.5,-,N/A,,Overcast,180,2013-06-15 23:50:00
7:50 PM,78.8,64.4,61,29.96,10.0,SW,11.5,-,N/A,,Overcast,220,2013-06-16 00:50:00
8:50 PM,77.0,68.0,74,30.02,4.0,West,23.0,34.5,N/A,Rain-Thunderstorm,Thunderstorms and Rain,270,2013-06-16 01:50:00
9:50 PM,69.8,66.2,88,30.04,4.0,NW,13.8,25.3,N/A,Rain-Thunderstorm,Thunderstorms and Rain,310,2013-06-16 02:50:00
10:15 PM,69.1,65.8,89,30.07,10.0,Calm,Calm,-,N/A,,Light Drizzle,0,2013-06-16 03:15:00
10:35 PM,69.1,65.8,89,30.05,10.0,North,4.6,-,N/A,Rain,Light Rain,360,2013-06-16 03:35:00
10:55 PM,68.9,65.8,90,30.04,10.0,Calm,Calm,-,N/A,Rain,Rain,0,2013-06-16 03:55:00
11:15 PM,69.1,66.2,91,30.05,10.0,Calm,Calm,-,N/A,Rain,Light Rain,0,2013-06-16 04:15:00
11:35 PM,68.9,66.0,90,30.04,10.0,Calm,Calm,-,N/A,,Scattered Clouds,0,2013-06-16 04:35:00
11:55 PM,68.9,65.5,89,30.04,10.0,Calm,Calm,-,0.01,Rain,Light Rain,0,2013-06-16 04:55:00